^^
Saratoga-Weather Station Historical Data
Daily Summary for August 14, 2022 Units:  Metric    English   Both
Daily Weekly Monthly Yearly Custom
  High: Low: Average:
Temperature: 27.2 °C 16.2 °C 19.6 °C
Dew Point: 13.5 °C 10 °C 11.2 °C
Humidity: 68% 43% 59%
Wind Speed: 4.7km/h 0km/h 0.7km/h
Wind Gust: 11.3km/h - -
Wind- - ESE
Pressure: 1010.5 hPa 1006.4 hPa -
Precipitation: 0.0 mm    
Historical Graphs
 
 
Tabular Data for August 14, 2022
Time Temperature Dew Point Pressure Wind Wind Speed Wind Gust Humidity Rainfall Rate (Hourly) solar
00:03 20.2 °C 10.9 °C 1010.5 hPa Calm     55% 0.0 mm 0 W/m2
00:08 20.2 °C 10.9 °C 1010.5 hPa Calm     55% 0.0 mm 0 W/m2
00:13 20.1 °C 11 °C 1010.5 hPa East 1.4 km/h 3.2 km/h 56% 0.0 mm 0 W/m2
00:18 20 °C 11 °C 1010.5 hPa East 1.4 km/h 1.6 km/h 56% 0.0 mm 0 W/m2
00:23 20 °C 11 °C 1010.5 hPa Calm     56% 0.0 mm 0 W/m2
00:28 19.9 °C 10.9 °C 1010.5 hPa Calm     56% 0.0 mm 0 W/m2
00:33 19.8 °C 11 °C 1010.5 hPa Calm     57% 0.0 mm 0 W/m2
00:38 19.7 °C 10.7 °C 1010.5 hPa Calm     56% 0.0 mm 0 W/m2
00:43 19.6 °C 10.8 °C 1010.5 hPa Calm     57% 0.0 mm 0 W/m2
00:48 19.5 °C 10.8 °C 1010.5 hPa Calm     57% 0.0 mm 0 W/m2
00:53 19.4 °C 10.7 °C 1010.5 hPa Calm     57% 0.0 mm 0 W/m2
00:58 19.3 °C 10.6 °C 1010.5 hPa Calm   1.6 km/h 57% 0.0 mm 0 W/m2
01:03 19.2 °C 10.7 °C 1010.5 hPa Calm   3.2 km/h 58% 0.0 mm 0 W/m2
01:08 19.1 °C 10.6 °C 1010.2 hPa Calm     58% 0.0 mm 0 W/m2
01:13 19.1 °C 10.6 °C 1010.5 hPa Calm     58% 0.0 mm 0 W/m2
01:18 19.1 °C 10.6 °C 1010.2 hPa Calm     58% 0.0 mm 0 W/m2
01:23 19.1 °C 10.6 °C 1010.2 hPa Calm     58% 0.0 mm 0 W/m2
01:28 19 °C 10.8 °C 1010.2 hPa Calm   1.6 km/h 59% 0.0 mm 0 W/m2
01:33 18.9 °C 10.7 °C 1010.2 hPa Calm   1.6 km/h 59% 0.0 mm 0 W/m2
01:38 18.9 °C 10.7 °C 1010.2 hPa Calm     59% 0.0 mm 0 W/m2
01:43 18.8 °C 10.6 °C 1010.2 hPa Calm     59% 0.0 mm 0 W/m2
01:48 18.7 °C 10.8 °C 1009.8 hPa Calm     60% 0.0 mm 0 W/m2
01:53 18.6 °C 10.7 °C 1009.8 hPa Calm     60% 0.0 mm 0 W/m2
01:58 18.4 °C 10.5 °C 1009.8 hPa Calm   1.6 km/h 60% 0.0 mm 0 W/m2
02:03 18.4 °C 10.5 °C 1009.5 hPa Calm     60% 0.0 mm 0 W/m2
02:08 18.3 °C 10.6 °C 1009.5 hPa Calm   1.6 km/h 61% 0.0 mm 0 W/m2
02:13 18.3 °C 10.6 °C 1009.5 hPa Calm     61% 0.0 mm 0 W/m2
02:18 18.2 °C 10.6 °C 1009.5 hPa Calm     61% 0.0 mm 0 W/m2
02:23 18.2 °C 10.6 °C 1009.1 hPa Calm     61% 0.0 mm 0 W/m2
02:28 18.1 °C 10.7 °C 1009.1 hPa Calm     62% 0.0 mm 0 W/m2
02:33 18.1 °C 10.7 °C 1009.1 hPa Calm     62% 0.0 mm 0 W/m2
02:38 18 °C 10.6 °C 1009.1 hPa Calm     62% 0.0 mm 0 W/m2
02:43 17.9 °C 10.5 °C 1009.1 hPa Calm     62% 0.0 mm 0 W/m2
02:48 17.9 °C 10.8 °C 1009.1 hPa Calm     63% 0.0 mm 0 W/m2
02:53 17.8 °C 10.7 °C 1009.1 hPa Calm     63% 0.0 mm 0 W/m2
02:58 17.8 °C 10.7 °C 1009.1 hPa Calm     63% 0.0 mm 0 W/m2
03:03 17.7 °C 10.8 °C 1009.1 hPa Calm     64% 0.0 mm 0 W/m2
03:08 17.6 °C 10.7 °C 1009.1 hPa Calm     64% 0.0 mm 0 W/m2
03:13 17.5 °C 10.6 °C 1008.8 hPa Calm     64% 0.0 mm 0 W/m2
03:18 17.4 °C 10.8 °C 1009.1 hPa Calm     65% 0.0 mm 0 W/m2
03:23 17.4 °C 10.8 °C 1009.1 hPa Calm     65% 0.0 mm 0 W/m2
03:28 17.4 °C 10.5 °C 1009.1 hPa Calm     64% 0.0 mm 0 W/m2
03:33 17.4 °C 10.5 °C 1009.1 hPa Calm     64% 0.0 mm 0 W/m2
03:38 17.4 °C 10.5 °C 1008.8 hPa Calm     64% 0.0 mm 0 W/m2
03:43 17.4 °C 10.5 °C 1008.8 hPa Calm     64% 0.0 mm 0 W/m2
03:48 17.4 °C 10.5 °C 1008.8 hPa Calm     64% 0.0 mm 0 W/m2
03:53 17.4 °C 10.5 °C 1008.8 hPa Calm     64% 0.0 mm 0 W/m2
03:58 17.3 °C 10.4 °C 1008.8 hPa Calm     64% 0.0 mm 0 W/m2
04:03 17.2 °C 10.3 °C 1008.8 hPa Calm     64% 0.0 mm 0 W/m2
04:08 17.2 °C 10.6 °C 1008.8 hPa Calm     65% 0.0 mm 0 W/m2
04:13 17.2 °C 10.6 °C 1008.8 hPa Calm     65% 0.0 mm 0 W/m2
04:18 17.1 °C 10.5 °C 1008.8 hPa Calm     65% 0.0 mm 0 W/m2
04:23 17.1 °C 10.5 °C 1008.8 hPa Calm     65% 0.0 mm 0 W/m2
04:28 17.1 °C 10.5 °C 1008.8 hPa Calm     65% 0.0 mm 0 W/m2
04:33 17.1 °C 10.5 °C 1008.8 hPa Calm   1.6 km/h 65% 0.0 mm 0 W/m2
04:38 17 °C 10.6 °C 1008.8 hPa Calm     66% 0.0 mm 0 W/m2
04:43 16.9 °C 10.5 °C 1008.5 hPa Calm     66% 0.0 mm 0 W/m2
04:48 16.8 °C 10.2 °C 1008.5 hPa Calm     65% 0.0 mm 0 W/m2
04:53 16.7 °C 10.3 °C 1008.5 hPa Calm   1.6 km/h 66% 0.0 mm 0 W/m2
04:58 16.7 °C 10.5 °C 1008.5 hPa Calm   1.6 km/h 67% 0.0 mm 0 W/m2
05:03 16.6 °C 10.4 °C 1008.5 hPa Calm     67% 0.0 mm 0 W/m2
05:08 16.6 °C 10.4 °C 1008.5 hPa Calm   1.6 km/h 67% 0.0 mm 0 W/m2
05:13 16.5 °C 10.4 °C 1008.5 hPa East 1.4 km/h 3.2 km/h 67% 0.0 mm 0 W/m2
05:18 16.5 °C 10.4 °C 1008.5 hPa East 1.4 km/h 3.2 km/h 67% 0.0 mm 0 W/m2
05:23 16.4 °C 10.3 °C 1008.5 hPa Calm   1.6 km/h 67% 0.0 mm 0 W/m2
05:28 16.4 °C 10.5 °C 1008.1 hPa Calm     68% 0.0 mm 0 W/m2
05:33 16.4 °C 10.3 °C 1008.1 hPa Calm   3.2 km/h 67% 0.0 mm 0 W/m2
05:38 16.4 °C 10.3 °C 1008.1 hPa Calm   1.6 km/h 67% 0.0 mm 0 W/m2
05:43 16.3 °C 10.4 °C 1008.1 hPa East 1.4 km/h 3.2 km/h 68% 0.0 mm 0 W/m2
05:48 16.3 °C 10.4 °C 1008.1 hPa Calm   1.6 km/h 68% 0.0 mm 0 W/m2
05:53 16.3 °C 10.4 °C 1008.5 hPa Calm     68% 0.0 mm 0 W/m2
05:58 16.3 °C 10.4 °C 1008.5 hPa Calm   1.6 km/h 68% 0.0 mm 0 W/m2
06:03 16.3 °C 10.4 °C 1008.5 hPa Calm     68% 0.0 mm 0 W/m2
06:08 16.3 °C 10.4 °C 1008.5 hPa Calm   1.6 km/h 68% 0.0 mm 0 W/m2
06:13 16.3 °C 10.4 °C 1008.1 hPa East 3.2 km/h 3.2 km/h 68% 0.0 mm 0 W/m2
06:18 16.2 °C 10.3 °C 1008.1 hPa Calm   3.2 km/h 68% 0.0 mm 7 W/m2
06:23 16.2 °C 10.3 °C 1008.1 hPa Calm     68% 0.0 mm 9 W/m2
06:28 16.2 °C 10.3 °C 1008.1 hPa Calm   3.2 km/h 68% 0.0 mm 7 W/m2
06:33 16.2 °C 10.3 °C 1008.1 hPa East 1.4 km/h 1.6 km/h 68% 0.0 mm 9 W/m2
06:38 16.3 °C 10.2 °C 1008.1 hPa East 1.4 km/h 3.2 km/h 67% 0.0 mm 12 W/m2
06:43 16.4 °C 10.3 °C 1008.1 hPa Calm     67% 0.0 mm 18 W/m2
06:48 16.4 °C 10 °C 1007.8 hPa Calm     66% 0.0 mm 23 W/m2
06:53 16.6 °C 10.4 °C 1008.1 hPa Calm   1.6 km/h 67% 0.0 mm 28 W/m2
06:58 16.7 °C 10.3 °C 1008.1 hPa Calm     66% 0.0 mm 35 W/m2
07:03 16.8 °C 10.4 °C 1008.1 hPa Calm     66% 0.0 mm 40 W/m2
07:08 16.9 °C 10.5 °C 1008.1 hPa Calm     66% 0.0 mm 44 W/m2
07:13 17.1 °C 10.7 °C 1008.5 hPa Calm     66% 0.0 mm 51 W/m2
07:18 17.2 °C 10.6 °C 1008.5 hPa Calm     65% 0.0 mm 58 W/m2
07:23 17.3 °C 10.7 °C 1008.1 hPa Calm     65% 0.0 mm 60 W/m2
07:28 17.6 °C 10.9 °C 1008.1 hPa Calm     65% 0.0 mm 62 W/m2
07:33 17.8 °C 10.9 °C 1008.1 hPa Calm     64% 0.0 mm 63 W/m2
07:38 18 °C 11.1 °C 1008.1 hPa Calm     64% 0.0 mm 72 W/m2
07:43 18.2 °C 11 °C 1008.1 hPa Calm     63% 0.0 mm 109 W/m2
07:48 18.6 °C 10.7 °C 1008.5 hPa East 1.4 km/h 1.6 km/h 60% 0.0 mm 79 W/m2
07:53 18.9 °C 11.2 °C 1008.1 hPa Calm     61% 0.0 mm 146 W/m2
07:58 19.6 °C 11.1 °C 1007.8 hPa Calm     58% 0.0 mm 149 W/m2
08:03 20.2 °C 11.1 °C 1007.5 hPa Calm   1.6 km/h 56% 0.0 mm 116 W/m2
08:08 20.5 °C 10.9 °C 1007.5 hPa Calm   1.6 km/h 54% 0.0 mm 69 W/m2
08:13 20.6 °C 11 °C 1007.8 hPa West 1.4 km/h 3.2 km/h 54% 0.0 mm 53 W/m2
08:18 20.6 °C 11.5 °C 1007.5 hPa South 1.4 km/h 3.2 km/h 56% 0.0 mm 74 W/m2
08:23 20.8 °C 11.4 °C 1007.5 hPa Calm     55% 0.0 mm 60 W/m2
08:28 21.1 °C 11.4 °C 1007.5 hPa South 1.4 km/h 1.6 km/h 54% 0.0 mm 58 W/m2
08:33 21.3 °C 11.3 °C 1007.5 hPa Calm     53% 0.0 mm 47 W/m2
08:38 21.5 °C 11.5 °C 1007.1 hPa Calm   3.2 km/h 53% 0.0 mm 49 W/m2
08:43 21.7 °C 11.7 °C 1007.5 hPa NNE 1.4 km/h 1.6 km/h 53% 0.0 mm 53 W/m2
08:48 22 °C 11.7 °C 1007.1 hPa NNW 1.4 km/h 4.8 km/h 52% 0.0 mm 54 W/m2
08:53 22.2 °C 12.2 °C 1007.1 hPa Calm   3.2 km/h 53% 0.0 mm 54 W/m2
08:58 22.5 °C 12.2 °C 1007.1 hPa North 1.4 km/h 4.8 km/h 52% 0.0 mm 54 W/m2
09:03 22.6 °C 11.9 °C 1007.5 hPa NE 1.4 km/h 4.8 km/h 51% 0.0 mm 56 W/m2
09:08 22.7 °C 12.3 °C 1007.5 hPa ESE 3.2 km/h 3.2 km/h 52% 0.0 mm 58 W/m2
09:13 22.7 °C 12.3 °C 1007.5 hPa East 3.2 km/h 4.8 km/h 52% 0.0 mm 63 W/m2
09:18 22.7 °C 12.3 °C 1007.5 hPa East 1.4 km/h 3.2 km/h 52% 0.0 mm 72 W/m2
09:23 22.8 °C 12.1 °C 1007.5 hPa SSE 1.4 km/h 4.8 km/h 51% 0.0 mm 84 W/m2
09:28 22.9 °C 12.5 °C 1007.5 hPa ESE 3.2 km/h 4.8 km/h 52% 0.0 mm 98 W/m2
09:33 22.9 °C 12.5 °C 1007.5 hPa ENE 4.7 km/h 6.4 km/h 52% 0.0 mm 128 W/m2
09:38 23.1 °C 12.7 °C 1007.5 hPa NNW 3.2 km/h 6.4 km/h 52% 0.0 mm 123 W/m2
09:43 23.2 °C 12.8 °C 1007.5 hPa SE 1.4 km/h 3.2 km/h 52% 0.0 mm 135 W/m2
09:48 23.4 °C 12.7 °C 1007.5 hPa ESE 4.7 km/h 6.4 km/h 51% 0.0 mm 156 W/m2
09:53 23.7 °C 13 °C 1007.5 hPa NNE 1.4 km/h 4.8 km/h 51% 0.0 mm 174 W/m2
09:58 23.8 °C 12.8 °C 1007.1 hPa ESE 1.4 km/h 6.4 km/h 50% 0.0 mm 186 W/m2
10:03 23.9 °C 13.1 °C 1007.1 hPa SE 1.4 km/h 3.2 km/h 51% 0.0 mm 209 W/m2
10:08 24.1 °C 13 °C 1007.1 hPa Calm   3.2 km/h 50% 0.0 mm 257 W/m2
10:13 24.2 °C 13.1 °C 1007.1 hPa East 1.4 km/h 4.8 km/h 50% 0.0 mm 285 W/m2
10:18 24.3 °C 13.2 °C 1007.1 hPa East 4.7 km/h 6.4 km/h 50% 0.0 mm 397 W/m2
10:23 24.6 °C 13.2 °C 1007.1 hPa NE 3.2 km/h 6.4 km/h 49% 0.0 mm 545 W/m2
10:28 24.7 °C 13 °C 1007.1 hPa SE 3.2 km/h 6.4 km/h 48% 0.0 mm 392 W/m2
10:33 24.9 °C 13.1 °C 1007.1 hPa SE 3.2 km/h 3.2 km/h 48% 0.0 mm 327 W/m2
10:38 25.1 °C 13 °C 1007.5 hPa ENE 3.2 km/h 6.4 km/h 47% 0.0 mm 589 W/m2
10:43 25.2 °C 13.1 °C 1007.5 hPa Calm   6.4 km/h 47% 0.0 mm 353 W/m2
10:48 25.4 °C 13.3 °C 1007.5 hPa East 3.2 km/h 4.8 km/h 47% 0.0 mm 612 W/m2
10:53 25.7 °C 13.2 °C 1007.1 hPa NE 1.4 km/h 6.4 km/h 46% 0.0 mm 450 W/m2
10:58 25.9 °C 13.4 °C 1007.1 hPa ENE 3.2 km/h 3.2 km/h 46% 0.0 mm 585 W/m2
11:03 26.2 °C 13.3 °C 1007.1 hPa ESE 1.4 km/h 11.3 km/h 45% 0.0 mm 452 W/m2
11:08 26.3 °C 13.4 °C 1006.8 hPa Calm   4.8 km/h 45% 0.0 mm 640 W/m2
11:13 26.4 °C 13.5 °C 1006.8 hPa SE 4.7 km/h 6.4 km/h 45% 0.0 mm 450 W/m2
11:19 26.6 °C 13.3 °C 1006.8 hPa NNW 3.2 km/h 4.8 km/h 44% 0.0 mm 413 W/m2
11:24 26.8 °C 13.5 °C 1006.4 hPa SE 3.2 km/h 6.4 km/h 44% 0.0 mm 466 W/m2
11:29 27 °C 13.4 °C 1006.4 hPa ENE 1.4 km/h 4.8 km/h 43% 0.0 mm 378 W/m2
11:34 27.2 °C 13.5 °C 1006.4 hPa ENE 1.4 km/h 6.4 km/h 43% 0.0 mm 381 W/m2
Juneau County Weather
Compliments of Weather Underground - 2 mb